COSMOS 2522 (752) (42939 NORAD) Tracking and Keplerian Element Data

This shows tracking and keplerian element data for the satellite.

Feedback or suggestion? Click here.




ElementValue
Catalog42939
NameCOSMOS 2522 (752)
Epoch Orbit955
Epoch Day348.46792612
Epoch Year2018
RAAN286.1277
Inclination64.5874
Eccentricity0.0008918
Argument of Perigee253.7364
Mean Anonmoly279.5308
Mean Motion2.13101949
Decay Rate-2.2E-07
L11 42939U 17055A 18348.46792612 -.00000022 00000-0 00000+0 0 9990
L22 42939 64.5874 286.1277 0008918 253.7364 279.5308 2.13101949 9555

Live tracking and technical data element details for COSMOS 2522 (752) (NORAD 42939). COSMOS 2522 (752) can be tracked NOW for your location showing map with azimuth and elevation plus other details from your city location.

Track the satellite on the map from your city or location and see movement details for azimuth, elevation, latitude, longitude, range, height, and movement on the map or in text.







IsCatalogInMostPopularTable: catalog: 42939, numindb: 154
Update: records affected: 1



GetName: 42939 COSMOS 2522 (752)

Hit Count: updated at: Sun, 16 Dec 2018 11:46:55 GMT